Regional Weather Roundup
Issued by NWS

Home | Current Version | Previous Version | Graphics & Text | Print | Product List | Glossary On
Versions: 1 2 3 4 5 6 7 8 9 10 11 12 13 14 15 16 17 18 19 20 21 22 23 24 25 26 27 28 29 30 31 32 33 34 35 36 37 38 39 40 41 42 43 44 45 46 47 48 49 50
000
ASUS43 KDTX 070501
RWRMI
MICHIGAN HOURLY REGIONAL WEATHER ROUNDUP
NATIONAL WEATHER SERVICE DETROIT/PONTIAC MI
100 AM EDT THU MAY 07 2015

NOTE: "FAIR" INDICATES FEW OR NO CLOUDS BELOW 12,000 FEET WITH NO
SIGNIFICANT WEATHER AND/OR OBSTRUCTION TO VISIBILITY.

MIZ047>049-052>055-059>063-066>070-074>076-081>083-070600-
SOUTHEAST LOWER MICHIGAN

CITY           SKY/WX    TMP DP  RH WIND       PRES   REMARKS
ADRIAN         CLEAR     56  53  90 CALM      30.18F
ALMA           CLEAR     58  53  84 CALM      30.16S
ANN ARBOR      FOG       53  52  96 CALM      30.18S VSB 1/4
BAD AXE        CLEAR     50  44  78 CALM      30.19S
CARO           CLEAR     56  53  89 CALM      30.17S FOG
DETROIT CITY   CLEAR     59  54  83 CALM      30.18S
DETROIT        MOCLDY    58  54  86 CALM      30.19S
FLINT          CLEAR     60  55  83 CALM      30.17S HAZE
GROSSE ILE     CLEAR     54  52  94 CALM      30.17S FOG
HILLSDALE      CLEAR     59  57  93 SE8       30.17F
HOWELL         CLEAR     60  58  95 SE5       30.18R FOG

CITY           SKY/WX    TMP DP  RH WIND       PRES   REMARKS
JACKSON        CLEAR     58  55  90 SE7       30.17S FOG
LAMBERTVILLE     N/A     52  50  93 CALM      30.18S FOG
LANSING        CLEAR     62  58  86 SE8       30.16F FOG
LAPEER         FAIR      55  53  92 CALM      30.18F FOG
MASON          CLEAR     59  57  93 SE5       30.17R FOG
MONROE         FOG       52  52 100 CALM      30.16F VSB 1/2
MT. CLEMENS    CLEAR     55  54  94 E6        30.17S FOG
PONTIAC        CLEAR     59  57  93 CALM      30.18S FOG
PORT HOPE        N/A     51  41  68 S8        30.17S
PORT HURON     CLEAR     46  46 100 CALM      30.19F FOG
TRI CITIES     CLEAR     55  51  86 E3        30.17S
MIDLAND        FAIR      53  49  87 E3        30.16S
TROY           CLEAR     60  58  92 CALM      30.20S FOG
SAGINAW HB     CLEAR     54  50  87 CALM      30.17R
$$
MIZ043>046-050>051-056>058-064>065-071>073-077>080-070600-
SOUTHWEST LOWER MICHIGAN

CITY           SKY/WX    TMP DP  RH WIND       PRES   REMARKS
BATTLE CREEK   PTCLDY    64  58  80 SE9       30.16R
BENTON HARBOR  MOCLDY    66  61  84 SE10      30.10R
BIG RAPIDS     CLEAR     62  57  83 SE5       30.14S
COLDWATER      CLEAR     59  55  87 SE8       30.16S
FREMONT        FAIR      65  59  81 SE5       30.11S
HOLLAND        PTCLDY    66  61  84 SE12      30.12S
GRAND RAPIDS   CLEAR     65  59  81 SE10      30.13S
IONIA          FAIR      62  59  91 SE6       30.14S FOG
KALAMAZOO      CLEAR     64  58  80 SE3       30.15R HAZE
LUDINGTON      CLEAR     61  56  85 SE3       30.11R
MARSHALL       CLEAR     59  56  89 SE7       30.16S
MOUNT PLEASANT CLEAR     57  51  79 CALM      30.16R
MUSKEGON       PTCLDY    66  60  81 SE9       30.11R
SOUTH HAVEN    PTCLDY    69  61  77 SE8       30.11R
$$
MIZ016>042-070600-
NORTHERN LOWER MICHIGAN

CITY           SKY/WX    TMP DP  RH WIND       PRES   REMARKS
ALPENA         CLEAR     48  43  82 SE5       30.17S
BEAVER ISLAND  CLEAR     46  41  83 E3        30.12S
BELLAIRE       PTCLDY    52  47  83 CALM      30.13R
CADILLAC       PTCLDY    60  52  75 CALM      30.14S
CHARLEVOIX     CLEAR     54  43  66 SE3       30.15R
FRANKFORT      MOCLDY    56  46  70 CALM      30.10S
GAYLORD        CLEAR     57  52  83 SE6       30.15R
GRAYLING       CLEAR     56  50  79 CALM      30.16S
HARBOR SPRINGS CLEAR     56  45  68 NE3       30.13R
HOUGHTON LAKE  CLOUDY    55  48  77 E5        30.16S
MANISTEE       PTCLDY    54  46  76 E5        30.12R
OSCODA         CLEAR     46  40  81 CALM      30.18S
PELLSTON       CLEAR     50  43  77 CALM      30.14R
ROGERS CITY    CLEAR     55  47  74 SE6       30.16S
TRAVERSE CITY  PTCLDY    53  42  66 CALM      30.11S
$$
MIZ007>008-015-070600-
EASTERN UPPER MICHIGAN

CITY           SKY/WX    TMP DP  RH WIND       PRES   REMARKS
KINROSS        CLEAR     52  43  71 SE9       30.14S
MACKINAC ISLAN CLEAR     43  38  82 E5        30.14R
NEWBERRY       CLEAR     51  41  67 SE5       30.12S
S. S. MARIE    CLEAR     52  41  66 E5        30.15S
MUNISING         N/A     58  38  47 SW7       30.08F
$$
MIZ004>006-011>014-085-070600-
CENTRAL UPPER MICHIGAN

CITY           SKY/WX    TMP DP  RH WIND       PRES   REMARKS
MANISTIQUE     CLEAR     47  41  79 CALM      30.11R
ESCANABA       PTCLDY    46  39  76 CALM      30.09F
MENOMINEE      MOCLDY    48  39  71 E3        30.08F
SAWYER-GWINN   PTCLDY    52  45  78 S7        30.09S
$$
MIZ001>003-009>011-084-070600-
WESTERN UPPER MICHIGAN

CITY           SKY/WX    TMP DP  RH WIND       PRES   REMARKS
IRON MOUNTAIN  PTCLDY    53  47  79 SE6       30.07S
HOUGHTON       MOCLDY    57  43  59 SE5       30.03S
COPPER HARBOR    N/A     57  42  57 SW12G20   30.01S
IRONWOOD       MOCLDY    64  55  72 S15G22    29.96R
$$

ABBREVIATIONS USED IN REMARKS
   TC - TEMPERATURE IN CELSIUS
  WCI - WIND CHILL INDEX
   HX - HEAT INDEX
  VSB - VISIBILITY



USA.gov is the U.S. government's official web portal to all federal, state and local government web resources and services.